Simultaneous Nadir Overpasses (SNOs) Predictions

Prediction of SNOs between GOES-16 and NOAA-19 Satellite Orbit:

Table of predicted SNOs for the next 14.0 days since TLE Epoch: 1/30/2021
Index Date Time (GOES-16) GOES-16 Lat,Lon NOAA-19 Lat,Lon Distance(km) Time Diff (sec)
1 01/30/2021 23:36:16 0.01, -75.19 -0.31, -76.56 156.24 80
2 01/31/2021 23:27:14 0.02, -75.20 0.38, -73.70 170.87 80
3 02/01/2021 23:15:31 0.02, -75.20 1.06, -70.85 498.12 80
4 02/03/2021 11:48:02 -0.02, -75.25 0.77, -78.62 384.48 80
5 02/04/2021 11:36:18 -0.02, -75.26 0.12, -75.75 56.96 80
6 02/05/2021 11:21:56 -0.02, -75.27 -0.58, -72.90 270.72 80
7 02/07/2021 23:45:38 0.02, -75.25 -0.60, -77.87 299.00 80
8 02/08/2021 23:31:15 0.02, -75.26 0.09, -75.01 28.83 80
9 02/09/2021 23:19:32 0.03, -75.27 0.73, -72.14 356.82 80
10 02/12/2021 11:42:58 -0.03, -75.36 0.36, -77.06 194.83 80
